DW1549 Fauske NO current weather conditions

sailwx.info

Wind from 016

Air temperature 7.2° C
Dewpoint 6.0° C

Last reported at 2017-Aug-22 22:07 UTC.
Time now 2017-Aug-22 22:32 UTC

Location: N 67°16' E 015°25'.
View on Google Maps.

See reports from other nearby stations

  
Tides and Currents Weather Stations Pressure Air Temp Water Temp Dewpoint Dewpoint Depression Visibility Wind Speed Wind Dir Waves Ship Positions
date/time (UTC)wind fromknots sea level pressurealtimeterstation pressurevisibilityair tempwater tempwave heightnotes
2017-Aug-22 22:07 016 7.2
2017-Aug-22 21:57 016 7.2
2017-Aug-22 21:47 016 7.2
2017-Aug-22 21:37 016 7.2
2017-Aug-22 21:27 016 7.2
2017-Aug-22 21:07 016 7.8
2017-Aug-22 20:57 016 7.8
2017-Aug-22 20:37 016 7.8
2017-Aug-22 20:17 016 8.3
2017-Aug-22 19:47 016 8.9
2017-Aug-22 19:37 016 8.9
2017-Aug-22 19:27 016 9.4
2017-Aug-22 19:17 016 9.4
2017-Aug-22 19:07 016 9.4
2017-Aug-22 18:47 016 10.0
2017-Aug-22 18:27 016 10.0
2017-Aug-22 18:17 016 10.6
2017-Aug-22 18:07 016 10.6
2017-Aug-22 17:57 016 10.6
2017-Aug-22 17:47 016 10.6
2017-Aug-22 17:27 016 11.1
2017-Aug-22 17:17 016 11.1
2017-Aug-22 16:27 016 11.7
2017-Aug-22 16:17 016 11.7
2017-Aug-22 16:07 016 11.7
2017-Aug-22 15:47 016 12.2
2017-Aug-22 15:37 016 12.2
2017-Aug-22 15:17 016 12.2
2017-Aug-22 15:07 016 12.2
2017-Aug-22 14:27 016 0 gusting 2 12.2
2017-Aug-22 14:07 016 12.2
2017-Aug-22 13:57 016 12.2
2017-Aug-22 13:47 018 0 gusting 4 12.2
2017-Aug-22 13:37 046 12.8
2017-Aug-22 13:17 044 12.8
2017-Aug-22 12:57 028 12.8
2017-Aug-22 12:47 025 12.8
2017-Aug-22 12:37 025 12.8
2017-Aug-22 12:27 025 12.2
2017-Aug-22 12:17 025 12.2
2017-Aug-22 12:07 025 12.2
2017-Aug-22 11:57 029 12.8
2017-Aug-22 11:47 034 12.8
2017-Aug-22 11:37 028 12.2
2017-Aug-22 11:17 351 12.2
2017-Aug-22 11:07 029 12.2
2017-Aug-22 10:57 028 12.2
2017-Aug-22 10:27 010 2 gusting 10 12.8
2017-Aug-22 10:17 037 12.2
2017-Aug-22 10:07 064 0 gusting 4 12.2
2017-Aug-22 09:47 039 12.8
2017-Aug-22 09:37 016 0 gusting 5 11.7
2017-Aug-22 09:27 062 11.7
2017-Aug-22 09:17 058 11.7
2017-Aug-22 09:07 061 1 gusting 10 11.7
2017-Aug-22 08:57 048 1 gusting 6 12.2
2017-Aug-22 08:47 057 0 gusting 8 12.2
2017-Aug-22 08:17 047 0 gusting 8 12.2
2017-Aug-22 07:57 040 0 gusting 4 11.7
2017-Aug-22 06:57 045 0 gusting 2 10.6
2017-Aug-22 06:47 044 1 gusting 2 10.0
2017-Aug-22 06:37 041 10.0
2017-Aug-22 06:27 041 1 gusting 2 9.4
2017-Aug-22 06:17 041 0 gusting 2 8.9
2017-Aug-22 06:07 041 0 gusting 2 8.9
2017-Aug-22 05:57 041 0 gusting 2 8.9
2017-Aug-22 05:47 041 8.9
2017-Aug-22 05:37 041 8.3
2017-Aug-22 05:27 041 8.3
2017-Aug-22 05:07 041 7.8
2017-Aug-22 04:57 041 7.8
2017-Aug-22 04:37 041 7.2
2017-Aug-22 04:27 041 7.2
2017-Aug-22 04:17 041 7.2
2017-Aug-22 04:07 041 6.7
2017-Aug-22 03:47 041 6.7
2017-Aug-22 03:27 041 6.7
2017-Aug-22 03:17 041 7.2
2017-Aug-22 03:07 041 6.7
2017-Aug-22 02:47 042 6.7
2017-Aug-22 02:37 046 7.2
2017-Aug-22 02:17 046 7.2
2017-Aug-22 02:07 046 6.7
2017-Aug-22 01:57 046 6.7
2017-Aug-22 01:47 046 6.7
2017-Aug-22 01:07 047 6.7
2017-Aug-22 00:57 047 7.2
2017-Aug-22 00:47 047 7.2
2017-Aug-22 00:37 047 7.2
2017-Aug-22 00:27 047 7.2
2017-Aug-22 00:07 047 7.2
2017-Aug-21 23:47 047 7.2
2017-Aug-21 23:27 047 7.8
2017-Aug-21 23:17 047 7.8
2017-Aug-21 22:57 047 7.8
2017-Aug-21 22:47 047 7.8
2017-Aug-21 22:37 047 0 gusting 6 7.8
2017-Aug-21 22:17 041 7.8
2017-Aug-21 21:57 037 0 gusting 5 7.8
2017-Aug-21 21:37 006 7.8
2017-Aug-21 21:27 359 7.8
2017-Aug-21 21:07 359 7.8
2017-Aug-21 20:57 359 8.3
2017-Aug-21 20:47 359 8.3
2017-Aug-21 20:37 359 8.3
2017-Aug-21 20:27 359 8.3
2017-Aug-21 20:17 359 8.3
2017-Aug-21 19:57 359 8.3
2017-Aug-21 19:47 359 8.3
2017-Aug-21 19:37 359 8.3
2017-Aug-21 19:17 359 8.3
2017-Aug-21 19:07 359 8.9
2017-Aug-21 18:57 359 8.9
2017-Aug-21 18:47 359 8.9
2017-Aug-21 18:17 359 8.9
2017-Aug-21 17:57 359 9.4
2017-Aug-21 17:47 359 9.4
2017-Aug-21 17:37 359 9.4
2017-Aug-21 17:27 359 0 gusting 2 9.4
2017-Aug-21 17:07 352 10.0
2017-Aug-21 16:57 352 10.0
2017-Aug-21 16:37 352 10.0
2017-Aug-21 16:17 347 10.6
2017-Aug-21 15:47 334 10.6
2017-Aug-21 15:37 324 10.6
2017-Aug-21 15:27 347 11.1
2017-Aug-21 14:37 267 10.6
2017-Aug-21 14:07 251 0 gusting 11 10.6
2017-Aug-21 13:37 261 10.6
2017-Aug-21 13:07 249 1 gusting 7 10.6
2017-Aug-21 12:47 261 0 gusting 5 11.1
2017-Aug-21 12:37 276 10.6
2017-Aug-21 12:27 265 0 gusting 5 10.6
2017-Aug-21 12:17 285 1 gusting 10 11.1
2017-Aug-21 12:07 268 10.6
2017-Aug-21 11:57 236 0 gusting 6 10.6
2017-Aug-21 11:37 328 10.6
2017-Aug-21 11:27 328 10.6
2017-Aug-21 11:17 326 10.6
2017-Aug-21 11:07 326 10.6
2017-Aug-21 10:47 261 10.6
2017-Aug-21 10:37 241 10.6
2017-Aug-21 10:27 241 10.6
2017-Aug-21 10:17 242 10.6
2017-Aug-21 10:07 242 10.0
2017-Aug-21 09:47 242 10.0
2017-Aug-21 09:37 240 10.0
2017-Aug-21 09:17 238 10.0
2017-Aug-21 08:57 247 0 gusting 2 10.6
2017-Aug-21 08:47 251 10.6
2017-Aug-21 08:37 251 10.6
2017-Aug-21 08:27 254 10.0
2017-Aug-21 07:57 254 10.0
2017-Aug-21 07:47 254 10.0
2017-Aug-21 07:37 254 10.0
2017-Aug-21 07:27 254 10.0
2017-Aug-21 07:17 254 10.0
2017-Aug-21 07:07 254 10.0
2017-Aug-21 06:47 255 10.0
2017-Aug-21 06:37 255 10.0
2017-Aug-21 06:17 255 10.0
2017-Aug-21 06:07 255 10.0
2017-Aug-21 05:47 255 10.0
2017-Aug-21 05:37 255 10.0
2017-Aug-21 05:27 255 10.0
2017-Aug-21 05:17 255 10.0
2017-Aug-21 05:07 255 10.0
2017-Aug-21 04:57 255 10.0
2017-Aug-21 04:27 255 10.0
2017-Aug-21 04:17 255 10.0
2017-Aug-21 04:07 255 10.0
2017-Aug-21 03:57 255 10.0
2017-Aug-21 03:47 255 10.0
2017-Aug-21 03:37 255 10.6
2017-Aug-21 03:27 255 10.6
2017-Aug-21 03:07 255 10.6
2017-Aug-21 02:57 255 10.6
2017-Aug-21 02:47 255 10.6
2017-Aug-21 02:37 255 10.6
2017-Aug-21 02:27 268 0 gusting 5 10.6
2017-Aug-21 02:17 295 2 gusting 7 10.0
2017-Aug-21 02:07 273 10.0
2017-Aug-21 01:37 265 10.0
2017-Aug-21 01:27 251 10.0
2017-Aug-21 01:17 248 10.6
2017-Aug-21 01:07 249 10.6
2017-Aug-21 00:57 247 10.6
2017-Aug-21 00:47 247 10.6
2017-Aug-21 00:37 247 10.6
2017-Aug-21 00:27 247 10.6
2017-Aug-21 00:07 247 10.6
2017-Aug-20 23:57 253 10.6
2017-Aug-20 23:47 238 10.6
2017-Aug-20 23:27 234 11.1
2017-Aug-20 23:17 234 11.1
2017-Aug-20 22:57 234 11.1
2017-Aug-20 22:27 234 11.1
2017-Aug-20 22:17 234 11.1
2017-Aug-20 22:07 234 11.1